FW6002 Weather Reports


Display with metric or nautical units.
time (UTC)temp
F
wind
direction
speed
MPH
gust
MPH
rain 1hr
in
rain 24hr
in
rain mn
in
humidity
%
barometer
mb
20260903011055 92 126 1.0 4.0 0.00 0.00 0.00 52 1011.6
20260903010556 92 0 1.0 6.0 0.00 0.00 0.00 51 1011.5
20260903010106 93 185 1.0 6.0 0.00 0.00 0.00 49 1011.5
20260903005555 93 224 2.0 5.0 0.00 0.00 0.00 47 1011.4
20260903005056 94 0 0.0 3.0 0.00 0.00 0.00 45 1011.3
20260903004602 94 248 0.0 3.0 0.00 0.00 0.00 45 1011.3
20260903004056 94 217 0.0 3.0 0.00 0.00 0.00 45 1011.3
20260903003555 94 281 0.0 4.0 0.00 0.00 0.00 45 1011.2
20260903003119 95 213 0.0 4.0 0.00 0.00 0.00 44 1011.0
20260903002555 95 186 1.0 4.0 0.00 0.00 0.00 44 1010.9
20260903002055 95 218 0.0 5.0 0.00 0.00 0.00 43 1010.9
20260903001600 95 228 1.0 5.0 0.00 0.00 0.00 43 1011.0
20260903001054 96 147 1.0 5.0 0.00 0.00 0.00 42 1010.8
20260903000556 96 157 1.0 5.0 0.00 0.00 0.00 42 1010.8
20260903000108 96 0 0.0 4.0 0.00 0.00 0.00 42 1010.7
20260902235556 96 201 1.0 4.0 0.00 0.00 0.00 42 1010.8
20260902235059 96 265 1.0 4.0 0.00 0.00 0.00 42 1010.8
20260902234607 96 243 1.0 5.0 0.00 0.00 0.00 43 1010.7
20260902234058 97 196 1.0 5.0 0.00 0.00 0.00 42 1010.9
20260902233556 97 287 2.0 5.0 0.00 0.00 0.00 42 1011.0
20260902233102 97 200 1.0 4.0 0.00 0.00 0.00 42 1010.9
20260902232555 97 201 1.0 4.0 0.00 0.00 0.00 42 1010.9
20260902232055 97 205 1.0 4.0 0.00 0.00 0.00 42 1010.8
20260902231604 97 245 1.0 6.0 0.00 0.00 0.00 42 1010.9
20260902231055 97 278 1.0 6.0 0.00 0.00 0.00 42 1011.0
20260902230554 97 192 1.0 3.0 0.00 0.00 0.00 41 1011.0
20260902230122 97 252 0.0 6.0 0.00 0.00 0.00 42 1011.1
20260902225559 98 47 0.0 6.0 0.00 0.00 0.00 42 1011.0
20260902225054 98 202 2.0 6.0 0.00 0.00 0.00 41 1010.9
20260902224614 98 177 1.0 8.0 0.00 0.00 0.00 41 1010.9
20260902224056 98 223 1.0 8.0 0.00 0.00 0.00 42 1010.8
20260902223559 98 296 1.0 5.0 0.00 0.00 0.00 41 1010.8
20260902223114 98 238 2.0 5.0 0.00 0.00 0.00 40 1010.7
20260902222555 99 0 1.0 5.0 0.00 0.00 0.00 40 1011.0
20260902222054 99 0 0.0 5.0 0.00 0.00 0.00 41 1010.8
20260902221609 99 199 0.0 7.0 0.00 0.00 0.00 40 1011.0
20260902221100 99 213 1.0 7.0 0.00 0.00 0.00 40 1010.8
20260902220557 98 190 2.0 7.0 0.00 0.00 0.00 40 1011.0
20260902220100 99 238 1.0 6.0 0.00 0.00 0.00 40 1011.0
20260902215556 100 197 1.0 6.0 0.00 0.00 0.00 40 1011.1
20260902215054 100 249 0.0 5.0 0.00 0.00 0.00 39 1011.1
20260902214625 100 0 1.0 5.0 0.00 0.00 0.00 39 1011.2
20260902214055 100 207 1.0 4.0 0.00 0.00 0.00 38 1011.2
20260902213554 100 169 0.0 3.0 0.00 0.00 0.00 40 1011.3
20260902213102 100 0 1.0 3.0 0.00 0.00 0.00 39 1011.4
20260902212555 100 288 0.0 6.0 0.00 0.00 0.00 39 1011.4
20260902212055 101 254 1.0 6.0 0.00 0.00 0.00 37 1011.5
20260902211604 102 213 1.0 4.0 0.00 0.00 0.00 37 1011.4
20260902211054 102 169 0.0 4.0 0.00 0.00 0.00 37 1011.5
20260902210558 101 0 0.0 4.0 0.00 0.00 0.00 38 1011.4
20260902210058 103 194 0.0 3.0 0.00 0.00 0.00 37 1011.5
20260902205554 102 236 1.0 4.0 0.00 0.00 0.00 36 1011.6
20260902205055 103 297 1.0 4.0 0.00 0.00 0.00 36 1011.8
20260902204610 102 0 1.0 3.0 0.00 0.00 0.00 36 1011.5
20260902204054 104 180 0.0 3.0 0.00 0.00 0.00 35 1011.6
20260902203555 104 225 0.0 3.0 0.00 0.00 0.00 37 1011.6
20260902203101 103 181 0.0 3.0 0.00 0.00 0.00 35 1011.7
20260902202555 103 178 1.0 5.0 0.00 0.00 0.00 37 1011.7
20260902202055 103 0 1.0 5.0 0.00 0.00 0.00 37 1011.8
20260902201632 103 206 1.0 4.0 0.00 0.00 0.00 37 1011.8
20260902201055 104 215 0.0 4.0 0.00 0.00 0.00 37 1012.1
20260902200554 103 267 1.0 5.0 0.00 0.00 0.00 37 1012.1
20260902200108 102 122 2.0 5.0 0.00 0.00 0.00 38 1012.1
20260902195556 102 268 1.0 4.0 0.00 0.00 0.00 38 1012.2
20260902195055 102 175 1.0 3.0 0.00 0.00 0.00 39 1012.2
20260902194605 103 149 0.0 5.0 0.00 0.00 0.00 37 1012.4
20260902194055 102 343 1.0 5.0 0.00 0.00 0.00 37 1012.5
20260902193559 103 163 1.0 4.0 0.00 0.00 0.00 37 1012.7
20260902193104 104 315 1.0 5.0 0.00 0.00 0.00 37 1012.8
20260902192554 104 278 0.0 5.0 0.00 0.00 0.00 38 1012.9
20260902192055 101 0 1.0 5.0 0.00 0.00 0.00 40 1012.9
20260902191603 101 200 1.0 3.0 0.00 0.00 0.00 39 1012.8
20260902191054 103 185 0.0 2.0 0.00 0.00 0.00 39 1013.0
20260902190554 103 313 0.0 2.0 0.00 0.00 0.00 40 1013.1
20260902190106 101 63 0.0 3.0 0.00 0.00 0.00 41 1013.1
20260902185556 101 350 1.0 3.0 0.00 0.00 0.00 43 1013.3
20260902185057 101 31 0.0 4.0 0.00 0.00 0.00 43 1013.4
20260902184608 102 175 0.0 4.0 0.00 0.00 0.00 44 1013.4
20260902184055 101 0 0.0 3.0 0.00 0.00 0.00 42 1013.4
20260902183557 100 50 0.0 3.0 0.00 0.00 0.00 46 1013.5
20260902183105 100 211 0.0 2.0 0.00 0.00 0.00 43 1013.7
20260902182555 100 352 0.0 2.0 0.00 0.00 0.00 43 1013.7
20260902182057 101 250 1.0 2.0 0.00 0.00 0.00 43 1014.0
20260902181604 101 0 0.0 2.0 0.00 0.00 0.00 46 1013.9
20260902181054 101 215 0.0 3.0 0.00 0.00 0.00 45 1014.2
20260902180554 100 321 0.0 3.0 0.00 0.00 0.00 44 1014.3
20260902180113 99 260 0.0 3.0 0.00 0.00 0.00 44 1014.4
20260902175554 99 22 1.0 3.0 0.00 0.00 0.00 45 1014.4
20260902175125 100 324 0.0 2.0 0.00 0.00 0.00 44 1014.6
20260902174609 100 0 0.0 2.0 0.00 0.00 0.00 44 1014.6
20260902174059 100 19 0.0 2.0 0.00 0.00 0.00 45 1014.7
20260902173555 100 56 0.0 2.0 0.00 0.00 0.00 45 1014.7
20260902173104 99 360 0.0 2.0 0.00 0.00 0.00 45 1015.0
20260902172555 99 28 0.0 2.0 0.00 0.00 0.00 46 1015.0
20260902172055 98 38 0.0 2.0 0.00 0.00 0.00 47 1015.2
20260902171602 98 0 0.0 2.0 0.00 0.00 0.00 46 1015.2
20260902171055 98 0 0.0 3.0 0.00 0.00 0.00 48 1015.3
20260902170557 98 28 0.0 3.0 0.00 0.00 0.00 47 1015.3
20260902170106 98 242 0.0 2.0 0.00 0.00 0.00 47 1015.3
20260902165555 97 215 1.0 2.0 0.00 0.00 0.00 46 1015.5
20260902165054 98 282 0.0 3.0 0.00 0.00 0.00 48 1015.3
20260902164605 97 290 0.0 3.0 0.00 0.00 0.00 48 1015.4
20260902164054 97 121 0.0 3.0 0.00 0.00 0.00 50 1015.5
20260902163555 97 57 0.0 2.0 0.00 0.00 0.00 53 1015.6
20260902163106 96 44 0.0 2.0 0.00 0.00 0.00 53 1015.6
20260902162555 96 323 1.0 2.0 0.00 0.00 0.00 55 1015.7
20260902162055 96 67 0.0 2.0 0.00 0.00 0.00 53 1015.7
20260902161605 96 0 0.0 2.0 0.00 0.00 0.00 54 1015.6
20260902161054 95 0 0.0 2.0 0.00 0.00 0.00 56 1015.7
20260902160555 95 29 0.0 2.0 0.00 0.00 0.00 55 1015.9
20260902160059 94 0 0.0 2.0 0.00 0.00 0.00 56 1015.7
20260902155558 93 0 0.0 2.0 0.00 0.00 0.00 58 1015.8
20260902155055 93 274 0.0 2.0 0.00 0.00 0.00 57 1015.7
20260902154607 93 0 0.0 3.0 0.00 0.00 0.00 57 1015.6
20260902154054 93 0 0.0 4.0 0.00 0.00 0.00 59 1015.8
20260902153556 92 32 0.0 4.0 0.00 0.00 0.00 59 1015.8
20260902153104 91 63 1.0 4.0 0.00 0.00 0.00 59 1015.8
20260902152556 91 182 0.0 2.0 0.00 0.00 0.00 60 1015.8
20260902152055 91 207 0.0 3.0 0.00 0.00 0.00 59 1015.8
20260902151603 90 61 0.0 3.0 0.00 0.00 0.00 61 1015.8
20260902151057 90 154 0.0 3.0 0.00 0.00 0.00 62 1015.9
20260902150555 89 44 1.0 3.0 0.00 0.00 0.00 63 1015.7
20260902150103 89 121 0.0 3.0 0.00 0.00 0.00 62 1015.8
20260902145556 89 200 0.0 3.0 0.00 0.00 0.00 63 1015.9
20260902145056 88 193 0.0 3.0 0.00 0.00 0.00 63 1015.9
20260902144607 87 225 1.0 4.0 0.00 0.00 0.00 65 1015.9
20260902144055 87 69 1.0 5.0 0.00 0.00 0.00 64 1015.9
20260902143556 87 54 1.0 5.0 0.00 0.00 0.00 65 1015.9
20260902143107 86 48 1.0 4.0 0.00 0.00 0.00 65 1015.8
20260902142555 86 0 1.0 4.0 0.00 0.00 0.00 66 1016.0
20260902142056 86 58 1.0 3.0 0.00 0.00 0.00 66 1015.9
20260902141603 85 62 1.0 3.0 0.00 0.00 0.00 67 1015.8
20260902141057 85 98 0.0 3.0 0.00 0.00 0.00 68 1015.9
20260902140558 84 0 0.0 3.0 0.00 0.00 0.00 69 1015.7
20260902140109 83 75 0.0 3.0 0.00 0.00 0.00 70 1015.8
20260902135557 83 174 0.0 2.0 0.00 0.00 0.00 71 1015.8
20260902135055 82 182 0.0 2.0 0.00 0.00 0.00 73 1015.8
20260902134601 82 146 0.0 1.0 0.00 0.00 0.00 73 1015.8
20260902134055 82 80 0.0 1.0 0.00 0.00 0.00 74 1015.6
20260902133555 81 0 0.0 0.0 0.00 0.00 0.00 76 1015.7
20260902133106 80 0 0.0 0.0 0.00 0.00 0.00 77 1015.6
20260902132555 79 0 0.0 0.0 0.00 0.00 0.00 78 1015.8
20260902132055 79 0 0.0 0.0 0.00 0.00 0.00 79 1015.7
20260902131608 79 0 0.0 0.0 0.00 0.00 0.00 79 1015.6
20260902131056 78 0 0.0 0.0 0.00 0.00 0.00 80 1015.6
20260902130556 77 0 0.0 0.0 0.00 0.00 0.00 81 1015.5
20260902130107 77 0 0.0 0.0 0.00 0.00 0.00 83 1015.4
20260902125555 76 0 0.0 0.0 0.00 0.00 0.00 83 1015.4
20260902125056 75 0 0.0 0.0 0.00 0.00 0.00 84 1015.5
20260902124600 75 0 0.0 0.0 0.00 0.00 0.00 84 1015.3
20260902124055 75 0 0.0 0.0 0.00 0.00 0.00 84 1015.5
20260902123555 74 0 0.0 0.0 0.00 0.00 0.00 84 1015.3
20260902123107 74 0 0.0 0.0 0.00 0.00 0.00 85 1015.3
20260902122555 74 0 0.0 0.0 0.00 0.00 0.00 85 1015.2
20260902122055 74 0 0.0 0.0 0.00 0.00 0.00 84 1015.1
20260902121609 74 0 0.0 0.0 0.00 0.00 0.00 84 1015.1
20260902121056 74 0 0.0 0.0 0.00 0.00 0.00 84 1015.1
20260902120558 74 0 0.0 0.0 0.00 0.00 0.00 84 1015.1
20260902120104 74 0 0.0 0.0 0.00 0.00 0.00 84 1015.0
20260902115554 74 0 0.0 0.0 0.00 0.00 0.00 83 1015.2
20260902115055 74 0 0.0 0.0 0.00 0.00 0.00 83 1015.0
20260902114559 75 0 0.0 0.0 0.00 0.00 0.00 83 1015.1
20260902114055 75 0 0.0 0.0 0.00 0.00 0.00 83 1015.0
20260902113559 75 0 0.0 0.0 0.00 0.00 0.00 83 1015.0
20260902113108 75 0 0.0 0.0 0.00 0.00 0.00 83 1015.1
20260902112649 75 0 0.0 0.0 0.00 0.00 0.00 82 1015.1
20260902112056 75 0 0.0 0.0 0.00 0.00 0.00 82 1015.0
20260902111601 75 0 0.0 0.0 0.00 0.00 0.00 81 1015.0
20260902111055 75 0 0.0 0.0 0.00 0.00 0.00 81 1015.0
20260902110555 75 0 0.0 0.0 0.00 0.00 0.00 81 1015.0
20260902110101 76 0 0.0 0.0 0.00 0.00 0.00 81 1014.9
20260902105554 76 0 0.0 0.0 0.00 0.00 0.00 80 1014.9
20260902105056 76 0 0.0 0.0 0.00 0.00 0.00 80 1014.9
20260902104615 76 0 0.0 0.0 0.00 0.00 0.00 81 1014.9
20260902104055 76 0 0.0 0.0 0.00 0.00 0.00 80 1015.0
20260902103555 76 0 0.0 0.0 0.00 0.00 0.00 80 1015.0
20260902103106 76 0 0.0 0.0 0.00 0.00 0.00 80 1015.0
20260902102555 76 0 0.0 0.0 0.00 0.00 0.00 80 1014.9
20260902102056 76 0 0.0 0.0 0.00 0.00 0.00 79 1015.0
20260902101601 76 0 0.0 0.0 0.00 0.00 0.00 79 1014.9
20260902101055 77 0 0.0 0.0 0.00 0.00 0.00 79 1014.9
20260902100555 77 0 0.0 0.0 0.00 0.00 0.00 78 1014.9
20260902100104 77 0 0.0 0.0 0.00 0.00 0.00 78 1014.9
20260902095554 77 0 0.0 0.0 0.00 0.00 0.00 78 1015.0
20260902095055 77 0 0.0 0.0 0.00 0.00 0.00 78 1015.0
20260902094606 77 0 0.0 0.0 0.00 0.00 0.00 78 1014.7
20260902094056 77 0 0.0 0.0 0.00 0.00 0.00 78 1014.8
20260902093556 77 0 0.0 0.0 0.00 0.00 0.00 78 1014.8
20260902093105 77 0 0.0 0.0 0.00 0.00 0.00 78 1014.7
20260902092555 77 0 0.0 0.0 0.00 0.00 0.00 77 1014.9
20260902092055 77 0 0.0 0.0 0.00 0.00 0.00 77 1015.0
20260902091612 78 0 0.0 0.0 0.00 0.00 0.00 77 1015.0
20260902091055 78 0 0.0 0.0 0.00 0.00 0.00 76 1015.0
20260902090559 78 0 0.0 0.0 0.00 0.00 0.00 76 1014.9
20260902090106 78 0 0.0 0.0 0.00 0.00 0.00 76 1014.9
20260902085555 79 0 0.0 0.0 0.00 0.00 0.00 75 1015.0
20260902085055 79 0 0.0 0.0 0.00 0.00 0.00 74 1015.1
20260902084608 80 0 0.0 0.0 0.00 0.00 0.00 74 1015.0
20260902084056 80 0 0.0 0.0 0.00 0.00 0.00 73 1015.1
20260902083555 80 0 0.0 0.0 0.00 0.00 0.00 73 1015.2
20260902083117 80 0 0.0 2.0 0.00 0.00 0.00 72 1015.0
20260902082555 81 0 0.0 2.0 0.00 0.00 0.00 72 1015.2
20260902082055 81 0 0.0 2.0 0.00 0.00 0.00 72 1015.1
20260902081601 81 0 0.0 2.0 0.00 0.00 0.00 72 1015.1
20260902081055 81 0 0.0 2.0 0.00 0.00 0.00 72 1015.2
20260902080559 81 0 0.0 1.0 0.00 0.00 0.00 72 1015.2
20260902075558 81 0 0.0 2.0 0.00 0.00 0.00 72 1015.1
20260902075056 81 0 0.0 2.0 0.00 0.00 0.00 71 1015.1
20260902074619 81 0 0.0 2.0 0.00 0.00 0.00 71 1015.2
20260902074055 81 60 0.0 2.0 0.00 0.00 0.00 71 1015.3
20260902073556 81 0 0.0 2.0 0.00 0.00 0.00 71 1015.3
20260902073104 81 82 0.0 2.0 0.00 0.00 0.00 70 1015.3
20260902072556 82 0 0.0 2.0 0.00 0.00 0.00 70 1015.3
20260902072057 82 65 0.0 2.0 0.00 0.00 0.00 70 1015.3
20260902071602 82 0 0.0 3.0 0.00 0.00 0.00 69 1015.2
20260902071058 82 0 0.0 3.0 0.00 0.00 0.00 69 1015.3
20260902070554 82 72 0.0 2.0 0.00 0.00 0.00 69 1015.4
20260902070106 82 93 0.0 2.0 0.00 0.00 0.00 69 1015.3
20260902065555 82 0 1.0 3.0 0.00 0.00 0.00 69 1015.3
20260902065056 83 0 0.0 3.0 0.00 0.00 0.00 68 1015.4
20260902064601 83 0 0.0 3.0 0.00 0.00 0.00 68 1015.4
20260902064057 83 0 1.0 3.0 0.00 0.00 0.00 68 1015.5
20260902063556 83 0 1.0 4.0 0.00 0.00 0.00 68 1015.4
20260902063103 83 0 1.0 4.0 0.00 0.00 0.00 67 1015.3
20260902062556 83 188 1.0 4.0 0.00 0.00 0.00 67 1015.3
20260902062055 83 0 1.0 5.0 0.00 0.00 0.00 67 1015.3
20260902061604 83 66 1.0 5.0 0.00 0.00 0.00 67 1015.1
20260902061055 83 78 0.0 6.0 0.00 0.00 0.00 66 1015.1
20260902060555 84 92 1.0 6.0 0.00 0.00 0.00 66 1015.1
20260902060107 84 80 1.0 6.0 0.00 0.00 0.00 66 1015.1
20260902055555 84 101 1.0 5.0 0.00 0.00 0.00 66 1015.0
20260902055056 84 283 1.0 5.0 0.00 0.00 0.00 65 1014.9
20260902054609 84 32 2.0 5.0 0.00 0.00 0.00 65 1015.0
20260902054057 84 217 1.0 4.0 0.00 0.00 0.00 64 1015.0
20260902053555 84 199 1.0 4.0 0.00 0.00 0.00 64 1014.8
20260902053113 85 0 1.0 4.0 0.00 0.00 0.00 63 1014.9
20260902052557 85 58 1.0 4.0 0.00 0.00 0.00 63 1014.8
20260902052056 85 0 1.0 4.0 0.00 0.00 0.00 63 1014.7
20260902051624 85 54 1.0 4.0 0.00 0.00 0.00 62 1014.6
20260902051055 85 78 2.0 6.0 0.00 0.00 0.00 62 1014.8
20260902050555 85 73 1.0 6.0 0.00 0.00 0.00 61 1014.7
20260902050110 85 93 1.0 5.0 0.00 0.00 0.00 62 1014.8
20260902045555 85 112 1.0 5.0 0.00 0.00 0.00 63 1014.7
20260902045055 83 130 1.0 5.0 0.00 0.00 0.00 65 1014.7
20260902044602 83 0 0.0 0.0 0.00 0.00 0.00 65 1014.6
20260902044056 84 0 0.0 0.0 0.00 0.00 0.00 64 1014.5
20260902043555 84 0 0.0 1.0 0.00 0.00 0.00 63 1014.4
20260902043121 85 0 0.0 1.0 0.00 0.00 0.00 62 1014.6
20260902042555 85 0 0.0 1.0 0.00 0.00 0.00 62 1014.4
20260902042056 85 95 0.0 1.0 0.00 0.00 0.00 61 1014.4
20260902041603 86 0 0.0 1.0 0.00 0.00 0.00 61 1014.4
20260902041055 86 0 0.0 1.0 0.00 0.00 0.00 60 1014.4
20260902040555 86 123 0.0 2.0 0.00 0.00 0.00 60 1014.4
20260902040105 86 0 0.0 2.0 0.00 0.00 0.00 60 1014.4
20260902035554 86 84 0.0 2.0 0.00 0.00 0.00 60 1014.4
20260902035054 86 0 0.0 2.0 0.00 0.00 0.00 60 1014.3
20260902034601 86 0 0.0 3.0 0.00 0.00 0.00 60 1014.4
20260902034054 86 0 0.0 3.0 0.00 0.00 0.00 60 1014.4
20260902033555 86 145 0.0 1.0 0.00 0.00 0.00 60 1014.4
20260902033103 86 0 0.0 1.0 0.00 0.00 0.00 60 1014.2
20260902032556 86 0 0.0 1.0 0.00 0.00 0.00 60 1014.1
20260902032056 86 0 0.0 0.0 0.00 0.00 0.00 60 1014.0
20260902031607 86 0 0.0 0.0 0.00 0.00 0.00 60 1014.2
20260902031055 87 0 0.0 0.0 0.00 0.00 0.00 59 1014.0
20260902030555 87 0 0.0 2.0 0.00 0.00 0.00 57 1013.9
20260902030100 87 0 0.0 2.0 0.00 0.00 0.00 57 1013.8
20260902025555 87 129 0.0 1.0 0.00 0.00 0.00 57 1013.9
20260902025055 87 0 0.0 2.0 0.00 0.00 0.00 57 1013.8
20260902024600 88 0 0.0 2.0 0.00 0.00 0.00 56 1013.6
20260902024054 88 0 0.0 2.0 0.00 0.00 0.00 56 1013.5
20260902023554 89 0 0.0 2.0 0.00 0.00 0.00 56 1013.5
20260902023115 89 0 0.0 2.0 0.00 0.00 0.00 56 1013.4
20260902022558 89 0 0.0 2.0 0.00 0.00 0.00 56 1013.4
20260902022055 89 66 0.0 2.0 0.00 0.00 0.00 56 1013.3
20260902021604 89 132 0.0 2.0 0.00 0.00 0.00 56 1013.3
20260902021055 89 48 0.0 2.0 0.00 0.00 0.00 56 1013.0
20260902020555 90 0 0.0 2.0 0.00 0.00 0.00 56 1013.0
20260902020105 90 0 0.0 3.0 0.00 0.00 0.00 56 1013.1
20260902015558 90 132 0.0 3.0 0.00 0.00 0.00 55 1012.9
20260902015056 90 0 0.0 2.0 0.00 0.00 0.00 55 1012.9
20260902014603 90 0 0.0 2.0 0.00 0.00 0.00 55 1012.9
20260902014055 90 0 0.0 2.0 0.00 0.00 0.00 55 1012.8
20260902013555 90 0 0.0 2.0 0.00 0.00 0.00 54 1012.9
20260902013116 91 104 1.0 2.0 0.00 0.00 0.00 53 1012.9
20260902012555 91 88 0.0 2.0 0.00 0.00 0.00 53 1012.7
20260902012055 91 163 1.0 2.0 0.00 0.00 0.00 52 1012.6
20260902011635 91 49 0.0 2.0 0.00 0.00 0.00 52 1012.7